Погода в Аральске

Погода в Аральске : погода сейчас, прогноз погоды и архив. Всё, что Вы хотите узнать о погоде в Аральске!

Хотите узнать прогноз погоды в Аральске? Тогда Вам сюда: Погода в Аральске

Поиск расширенной информации на нашем сайте:

Другие новости

Новости СМИ2

Главная страница сайта

Новости сайта

03.07.2017

Напоминаем, что на нашем специализированном сайте Метеоцентр.Азия вы можете получить высокодетализированные автоматические прогнозы погоды по пунктам России, СНГ и мира в авиационном формате (включающие направление и скорость ветра, видимость, явления погоды, количество и форму облачности, нижнюю и верхнюю границу облачности).


Погода в Аральске - сегодня

Время (UTC), дата Ветер
(°,м/с) 
Видим.   Явления Облачность Т
(°С)
Тd
(°С)
f(%) Тe
(°С)
Pmin
(гПа)
dP
(гПа)
Po
(мм)
O2
(г/м3)
Тmin Tmax R s Состояние
почвы
18 13.12.17 030 (СВ) н/о    ясно 
-16.7 -19.3 80 -22  1038.9  -0.1  774  334    -14.4       
21 13.12.17 030 (СВ) н/о    ясно 
-18 -20.6 80 -22  1038.9  -0.1  774  335           
00 14.12.17 030 (СВ) н/о    ясно 
-19.2 -21.8 80 -26  1039.1  0.2  774  337           
03 14.12.17 030 (СВ) н/о    ясно 
-19.2 -21.8 80 -26  1039.6  0.5  774  337  -19.6      равномерный
сухой снег
100% 
06 14.12.17 020 (С) 20000 м    ясно 
-16.8 -20.2 75 -21  1040.7  1.2  775  334  -19.6         
09 14.12.17 040 (СВ) 20000 м    ясно 
-14 -18.3 70 -20  1039.9  -0.8  774  330           
12 14.12.17 040 (СВ) 20000 м    ясно 
-13 -16.5 75 -18  1039.7  -0.2  774  329           
15 14.12.17 050 (СВ) н/о    ясно 
-12.4 -15.9 75 -18  1039.5  774  328    -12.1       
18 14.12.17 050 (СВ) н/о    ясно 
-13.6 -17.1 75 -19  1039.5  -0.2  774  330    -12.1       
21 14.12.17 040 (СВ) н/о    ясно 
-14.8 -18.2 75 -20  1039.4  -0.1  774  331           
00 15.12.17 060 (СВ) н/о    ясно 
-15.5 -18.9 75 -22  1038.8  -0.6  774  332           
03 15.12.17 050 (СВ) н/о    ясно 
-16.4 -19.8 75 -22  1038.9  0.1  774  333  -16.4      равномерный
сухой снег
100% 
06 15.12.17 030 (СВ) 20000 м    ясно 
-14.8 -18.2 75 -21  1040.3  1.4  775  332  -16.4         
09 15.12.17 050 (СВ) 20000 м    ясно 
-12.4 -15.9 75 -18  1039.5  -0.6  774  328           
12 15.12.17 030 (СВ) 20000 м    ясно 
-11.6 -15.1 75 -16  1039.2  -0.3  774  327           
15 15.12.17 050 (СВ) н/о    ясно 
-11.6 -15.1 75 -17  1039.1  -0.1  774  327    -11.1       
18 15.12.17 050 (СВ) н/о    ясно 
-12.2 -15.7 75 -18  1038.9  -0.2  774  328    -11.1       
21 15.12.17 030 (СВ) н/о    ясно 
-14.6 -18.1 75 -20  1038.8  -0.3  774  331           
00 16.12.17 030 (СВ) н/о    ясно 
-16 -19.4 75 -21  1038.3  -0.5  773  333           
03 16.12.17 020 (С) н/о    ясно 
-16.4 -19.8 75 -21  1038.6  0.3  773  333  -17.2      равномерный
сухой снег
100% 
06 16.12.17 030 (СВ) 20000 м    ясно 
-15.1 -18.5 75 -21  1039.2  0.6  774  332  -17.2         
09 16.12.17 050 (СВ) 20000 м    ясно 
-10.7 -15.1 70 -16  1038.1  -0.9  773  326           
12 16.12.17 030 (СВ) 20000 м    ясно 
-10.8 -15.2 70 -15  1038  -0.1  773  326           
15 16.12.17 030 (СВ) н/о    ясно 
-11.7 -16.1 70 -17  1038.1  0.1  773  327    -10.2       
18 16.12.17 020 (С) н/о    ясно 
-13.8 -18.1 70 -18  1039.1  0.8  774  330    -10.2       
Время (UTC), дата Ветер
(°,м/с) 
Видим.   Явления Облачность Т
(°С)
Тd
(°С)
f(%) Тe
(°С)
Pmin
(гПа)
dP
(гПа)
Po
(мм)
O2
(г/м3)
Тmin Tmax R s Состояние
почвы

Для получения пояснительной информации подведите курсор к названию столбца.

ПОГОДА в Аральске - архив

Всё, что Вы хотите узнать о погоде в Аральске - удобно и подробно!

Выберите нужную дату (начиная с 1 января 2015* года) и нажмите кнопку "Найти".
Будут отображены архивные сводки погоды по пункту Аральск, начиная с указанной даты.


Отображать данные в формате CSV (для использования в таблицах Excel)


Внимание! Наш архив погоды предназначен исключительно для личного некоммерческого использования в познавательных целях. Если Вам необходимы официальные справки о состоянии погоды (для производственных, юридических, коммерческих и т.п. целей), обращайтесь в органы Росгидромета.

*Примечание: данная дата относится к архиву по метеостанциям СССР (Россия, СНГ, Балтия).
Архив по метеостанциям Зарубежной Европы и Азии (кроме Китая) хранится 10 дней, по другим регионам земного шара (Китай, Африка, Америка, Австралия, Океания) - 1 день.

Аральск - район местоположения метеостанции


Название, широта, долгота, высота метеостанции:
Аральск 46.8°ш. 61.6°д. 62 м над ур. моря [Казахстан]

Дополнительная информация

В oтличие oт бoльшинства пoгoдных сайтoв мы публикуем пoдрoбную метеoинфoрмацию в детальнoм прoфессиoнальнoм фoрмате.

Характеристики температуры и влажнoсти вoздуха измеряются на высoте 2 м в тени вдали oт зданий и деревьев.
Скoрoсть ветра измеряется на высoте 10 м (на урoвне рoста челoвека скoрoсть ветра ниже в 1.5-2 раза). Если метеoстанция нахoдится в гoрoде или в лесу, тo скoрoсть ветра занижена на 2-4 м/с пo сравнению с oткрытым местoм. Скoрoсть ветра над акватoриями крупных рек и oзёр, а также на вершинах хoлмoв на 2-5 м/с выше, чем в oбычных услoвиях.
Атмoсфернoе давление в разных тoчках местнoсти мoжет значительнo oтличаться oт давления на метеoстанции, в зависимoсти oт услoвий рельефа (при пoдъёме на 10 м давление пoнижается примернo на 1 мм рт.ст.).